Regional Weather Roundup
Issued by NWS Upton, NY

Current Version | Previous Version | Graphics & Text | Print | Product List | Glossary Off
Versions: 1 2 3 4 5 6 7 8 9 10 11 12 13 14 15 16 17 18 19 20 21 22 23 24 25 26 27 28 29 30 31 32 33 34 35 36 37 38 39 40 41 42 43 44 45 46 47 48 49 50

000
ASUS41 KOKX 260805
RWROKX

REGIONAL WEATHER ROUNDUP
NATIONAL WEATHER SERVICE NEW YORK NY
300 AM EST WED NOV 26 2014

NOTE: "FAIR" INDICATES FEW OR NO CLOUDS BELOW 12,000 FEET WITH NO
SIGNIFICANT WEATHER AND/OR OBSTRUCTIONS TO VISIBILITY.

NYZ071-072-176-178-NJZ106-104-260900-
NEW YORK CITY METRO AREA


CITY           SKY/WX    TMP DP  RH WIND       PRES   REMARKS
CENTRAL PARK   CLOUDY    50  27  40 VRB3      30.22R
LAGUARDIA APRT CLOUDY    50  30  46 NW12      30.20R
KENNEDY INTL   CLOUDY    51  27  39 NW9       30.22R
NEWARK/LIBERTY CLOUDY    48  31  51 NW5       30.20R
BRNX BOT. GARD   N/A    N/A N/A N/A W6        30.22R
TETERBORO      CLOUDY    48  30  49 NW6       30.20R
$$

NYZ177-179-078>081-260900-
LONG ISLAND NEW YORK

CITY           SKY/WX    TMP DP  RH WIND       PRES   REMARKS
FARMINGDALE    NOT AVBL
ISLIP          CLOUDY    49  31  49 NW7       30.16F
SHIRLEY        CLOUDY    47  33  58 NW6       30.18R
WESTHAMPTON    CLOUDY    43  37  79 NW5       30.19R
MONTAUK POINT    N/A     51  36  56 NW7       30.18S
$$

NYZ052-065-067-260900-
HUDSON VALLEY

CITY           SKY/WX    TMP DP  RH WIND       PRES   REMARKS
WHITE PLAINS   CLOUDY    46  29  51 W3        30.18R
NEWBURGH       CLEAR     41  30  65 CALM      30.18
MONTGOMERY     CLOUDY    40  29  64 N5        30.18R
POUGHKEEPSIE   CLOUDY    41  29  62 N6        30.21R
ALBANY         CLOUDY    39  27  62 NW6       30.23R WCI  35
$$

NJZ001-105-106-008-010-013-015-019>022-104-260900-
NEW JERSEY

CITY           SKY/WX    TMP DP  RH WIND       PRES   REMARKS
NEWARK/LIBERTY CLOUDY    48  31  51 NW5       30.20R
TETERBORO      CLOUDY    48  30  49 NW6       30.20R
CALDWELL       CLOUDY    43  30  60 CALM      30.21R
MORRISTOWN       N/A     41  36  81 CALM      30.20S
SOMERVILLE     CLOUDY    40  33  76 CALM      30.18R
SUSSEX         CLOUDY    36  32  85 CALM      30.19R
ANDOVER          N/A     37  34  89 CALM      30.20R
TRENTON        CLOUDY    43  33  68 CALM      30.19R
MILLVILLE      LGT RAIN  45  42  89 N3        30.15F
ATLANTIC CITY  LGT RAIN  45  39  79 N6        30.15F
WRIGHTSTOWN    CLOUDY    45  36  69 N8        30.15F
TOMS RIVER     CLOUDY    46  36  66 CALM      30.18S
BELMAR         CLOUDY    46  30  53 N10       30.16F
$$

PAZ047>061-062-071-260900-
EASTERN PENNSYLVANIA

CITY           SKY/WX    TMP DP  RH WIND       PRES   REMARKS
PHILADELPHIA   CLOUDY    46  38  73 CALM      30.18F
ALLENTOWN      CLOUDY    38  32  79 N3        30.19R
SCRANTON       CLOUDY    39  27  62 N5        30.17F
$$

CTZ002-004>006-009-010-012-RIZ004-006-007-MAZ004-011-015-260900-
SOUTHERN NEW ENGLAND
 IN CT

CITY           SKY/WX    TMP DP  RH WIND       PRES   REMARKS
BRADLEY INTL   CLOUDY    44  28  53 NW12G18   30.19R
HARTFORD       CLOUDY    45  27  49 NW7       30.19S
DANBURY        CLOUDY    43  28  55 VRB3      30.21R
WTRBRY/OXFORD  CLOUDY    41  27  56 N6        30.20R
BRIDGEPORT     CLOUDY    46  34  62 NW5       30.20R
MERIDEN        CLOUDY    45  28  51 NW8       30.20R
NEW HAVEN      CLOUDY    49  32  52 NW5       30.19R
CHESTER        FAIR      46  30  53 NW6       30.19R
GROTON         CLOUDY    46  32  58 NW7       30.17R
WILLIMANTIC    CLOUDY    40  35  83 CALM      30.18R

 IN RI

CITY           SKY/WX    TMP DP  RH WIND       PRES   REMARKS
PROVIDENCE     CLOUDY    46  31  55 W7        30.18R
BLOCK ISLAND   CLOUDY    50  32  50 NW7       30.17S
WESTERLY       CLOUDY    45  37  73 CALM      30.17R

 IN MA

CITY           SKY/WX    TMP DP  RH WIND       PRES   REMARKS
BOSTON         CLOUDY    48  29  47 NW8       30.16S
WORCESTER      CLOUDY    40  27  59 NW6       30.16R
WESTFIELD      CLOUDY    40  29  64 NW3       30.19R
PROVINCETOWN   CLOUDY    48  37  66 NW6       30.17S
NANTUCKET      CLOUDY    50  37  61 NW7       30.16R
$$

ANZ330-335-338-340-345-350-353-355-260900-
COASTAL MARINE OBSERVATIONS


STATION/POSITION TIME  SKY/WX   TEMP    WIND        PRES    VSBY  WAVE
                                AIR SEA DIR/SP/G                  HT/PER
                 (UTC)          (F)     (DEG/KT/KT) (MB)    (MI)  (FT/S)
NY HARB ENTRANCE 0800            51 53  320/ 14/ 17 1022.3          3/ 9
4S FIRE IS       0800               52                N/A           4/10
20S FIRE ISLAND  0800            53 54  340/ 14/ 16 1021.4          4/ 9
23SW MTP         0800                                 N/A           4/ 9
HUDSON CANYON    0800            54 59  340/ 14/ 17 1021.0          4/ 9
EXECUTION ROCKS  0800            50 48  280/  6/  8   N/A
WESTERN LI SOUND 0800            50     270/  8/ 10   N/A           0
CENTRAL LI SOUND 0700            50 51  290/  8/ 10   N/A           1/ 3
EASTERN LI SOUND 0700            50 53  300/ 10/ 12   N/A
ROBBINS REEF     0800            49     300/  7/  7 1021.5
$$


>>>>>>>>>>>>>>>>>>>>>>>>>>>> KEY <<<<<<<<<<<<<<<<<<<<<<<<<<<
>                                                          <
>     SKY/WX - SKY CONDITION/PRESENT WEATHER               <
>     TMP    - TEMPERATURE IN FAHRENHEIT                   <
>     DP     - DEWPOINT IN FAHRENHEIT                      <
>     RH     - RELATIVE HUMIDITY IN PERCENT                <
>     WIND   - DIRECTION AND SPEED IN MPH                  <
>     PRES   - MEAN SEA LEVEL PRESSURE IN INCHES OF HG     <
>     WCI    - WIND CHILL INDEX                            <
>     VSB    - VISIBILITY IN MILES                         <
>     HX     - HEAT INDEX                                  <
>     TC     - TEMPERATURE IN CELSIUS                      <
>     VRB    - VARIABLE WIND DIRECTION                     <
>                                                          <
>>>>>>>>>>>>>>>>>>>>>>>>>>>> KEY <<<<<<<<<<<<<<<<<<<<<<<<<<<





USA.gov is the U.S. government's official web portal to all federal, state and local government web resources and services.